CW4167 Weather Reports


Display with metric or nautical units.
time (UTC)temp
F
wind
direction
speed
MPH
gust
MPH
rain 1hr
in
rain 24hr
in
rain mn
in
humidity
%
barometer
mb
20260509091705 59 46 6.0 13.0 0.00 0.00 0.00 40 1021.0
20260509091206 59 38 9.0 14.0 0.00 0.00 0.00 38 1020.9
20260509090207 59 31 9.0 14.0 0.00 0.00 0.00 40 1021.0
20260509085706 59 60 6.0 9.0 0.00 0.00 0.00 40 1021.0
20260509082205 58 55 6.0 10.0 0.00 0.00 0.00 43 1021.2
20260509081705 58 71 6.0 8.0 0.00 0.00 0.00 44 1021.1
20260509081206 57 79 5.0 8.0 0.00 0.00 0.00 43 1021.2
20260509080705 57 51 9.0 14.0 0.00 0.00 0.00 44 1021.2
20260509080206 57 50 3.0 8.0 0.00 0.00 0.00 45 1021.2
20260509075206 57 73 7.0 10.0 0.00 0.00 0.00 46 1021.2
20260509074206 56 77 7.0 10.0 0.00 0.00 0.00 45 1021.3
20260509073206 56 97 5.0 7.0 0.00 0.00 0.00 47 1021.4
20260509071705 55 55 6.0 7.0 0.00 0.00 0.00 49 1021.5
20260509071205 55 45 4.0 6.0 0.00 0.00 0.00 50 1021.5
20260509065706 54 80 5.0 8.0 0.00 0.00 0.00 53 1021.5
20260509065206 53 92 5.0 8.0 0.00 0.00 0.00 54 1021.5
20260509062706 51 81 9.0 14.0 0.00 0.00 0.00 56 1021.5
20260509062207 51 72 6.0 9.0 0.00 0.00 0.00 58 1021.5
20260509061705 51 72 5.0 8.0 0.00 0.00 0.00 59 1021.5
20260509060205 50 81 6.0 8.0 0.00 0.00 0.00 62 1021.5
20260509055706 50 84 8.0 9.0 0.00 0.00 0.00 62 1021.6
20260509055205 49 70 5.0 8.0 0.00 0.00 0.00 63 1021.5
20260509053205 47 67 8.0 10.0 0.00 0.00 0.00 66 1021.6
20260509052705 46 63 5.0 10.0 0.00 0.00 0.00 68 1021.6
20260509052205 45 68 6.0 9.0 0.00 0.00 0.00 70 1021.6
20260509051206 43 61 6.0 8.0 0.00 0.00 0.00 73 1021.6
20260509050705 43 65 3.0 5.0 0.00 0.00 0.00 73 1021.6
20260509045705 42 79 3.0 5.0 0.00 0.00 0.00 73 1021.6
20260509044205 41 89 0.0 0.0 0.00 0.00 0.00 73 1021.6
20260509043705 40 89 0.0 1.0 0.00 0.00 0.00 74 1021.7
20260509043205 39 89 0.0 1.0 0.00 0.00 0.00 77 1021.7
20260509042205 37 89 1.0 1.0 0.00 0.00 0.00 77 1021.6
20260509040705 36 89 0.0 1.0 0.00 0.00 0.00 75 1021.6
20260509035705 36 89 0.0 0.0 0.00 0.00 0.00 75 1021.6
20260509034706 37 89 3.0 3.0 0.00 0.00 0.00 74 1021.6
20260509034205 37 91 5.0 5.0 0.00 0.00 0.00 74 1021.5
20260509033705 37 94 5.0 5.0 0.00 0.00 0.00 74 1021.6
20260509033205 37 94 6.0 5.0 0.00 0.00 0.00 74 1021.6
20260509032205 37 91 5.0 5.0 0.00 0.00 0.00 75 1021.5
20260509031705 37 90 5.0 5.0 0.00 0.00 0.00 75 1021.7
20260509031205 37 88 5.0 6.0 0.00 0.00 0.00 75 1021.7
20260509030205 37 89 5.0 5.0 0.00 0.00 0.00 75 1021.7
20260509025205 37 91 5.0 5.0 0.00 0.00 0.00 75 1021.8
20260509020705 38 94 6.0 6.0 0.00 0.00 0.00 75 1021.8
20260509013706 38 78 5.0 6.0 0.00 0.00 0.00 75 1022.0
20260509012706 38 73 5.0 7.0 0.00 0.00 0.00 75 1022.0
20260509012206 38 73 5.0 6.0 0.00 0.00 0.00 75 1022.1
20260509011705 38 75 5.0 6.0 0.00 0.00 0.00 75 1022.1
20260509010706 38 71 5.0 6.0 0.00 0.00 0.00 75 1022.1
20260509010205 38 74 5.0 6.0 0.00 0.00 0.00 75 1022.1
20260509005205 38 79 5.0 6.0 0.00 0.00 0.00 75 1022.1
20260509004705 38 77 5.0 5.0 0.00 0.00 0.00 75 1022.1
20260509003705 38 80 4.0 6.0 0.00 0.00 0.00 74 1022.3
20260509003205 38 75 3.0 5.0 0.00 0.00 0.00 74 1022.3
20260509000705 39 73 4.0 6.0 0.00 0.00 0.00 73 1022.4
20260508234706 39 74 4.0 6.0 0.00 0.00 0.00 73 1022.4
20260508233705 39 81 5.0 6.0 0.00 0.00 0.00 73 1022.6
20260508233205 39 82 5.0 6.0 0.00 0.00 0.00 72 1022.6
20260508231209 40 76 3.0 3.0 0.00 0.00 0.00 72 1022.6
20260508230705 40 76 3.0 5.0 0.00 0.00 0.00 71 1022.5
20260508230206 40 80 3.0 5.0 0.00 0.00 0.00 71 1022.5
20260508225205 41 87 3.0 5.0 0.00 0.00 0.00 70 1022.4
20260508224707 41 96 3.0 5.0 0.00 0.00 0.00 70 1022.4
20260508224206 41 97 5.0 5.0 0.00 0.00 0.00 69 1022.4
20260508222707 41 99 4.0 6.0 0.00 0.00 0.00 69 1022.4
20260508221206 41 105 5.0 6.0 0.00 0.00 0.00 71 1022.4
20260508220205 40 117 6.0 8.0 0.00 0.00 0.00 72 1022.3
20260508215206 40 120 3.0 6.0 0.00 0.00 0.00 70 1022.4
20260508214706 40 121 3.0 3.0 0.00 0.00 0.00 70 1022.4
20260508212705 40 143 5.0 7.0 0.00 0.00 0.00 67 1022.4
20260508212206 40 137 5.0 6.0 0.00 0.00 0.00 67 1022.3
20260508211706 41 138 5.0 6.0 0.00 0.00 0.00 66 1022.2
20260508210705 41 136 3.0 3.0 0.00 0.00 0.00 65 1022.2
20260508205705 42 141 5.0 5.0 0.00 0.00 0.00 65 1022.2
20260508205204 42 141 5.0 5.0 0.00 0.00 0.00 64 1022.0
20260508204205 43 143 4.0 5.0 0.00 0.00 0.00 62 1022.0
20260508203705 43 146 5.0 5.0 0.00 0.00 0.00 61 1022.0
20260508203206 43 150 5.0 5.0 0.00 0.00 0.00 61 1021.9
20260508201707 44 149 6.0 6.0 0.00 0.00 0.00 59 1021.9
20260508201204 44 143 5.0 6.0 0.00 0.00 0.00 59 1021.8
20260508195705 46 136 5.0 5.0 0.00 0.00 0.00 57 1021.8
20260508194705 47 135 5.0 5.0 0.00 0.00 0.00 57 1021.8
20260508193205 48 143 5.0 6.0 0.00 0.00 0.00 53 1021.7
20260508192705 49 131 4.0 6.0 0.00 0.00 0.00 51 1021.6
20260508191706 50 127 5.0 7.0 0.00 0.00 0.00 51 1021.4
20260508184705 52 126 3.0 5.0 0.00 0.00 0.00 50 1021.0
20260508184206 53 128 5.0 7.0 0.00 0.00 0.00 49 1021.0
20260508183206 53 122 7.0 8.0 0.00 0.00 0.00 48 1021.0
20260508182206 54 124 7.0 13.0 0.00 0.00 0.00 48 1020.9
20260508180704 55 118 9.0 14.0 0.00 0.00 0.00 47 1020.9
20260508175205 56 123 8.0 15.0 0.00 0.00 0.00 46 1020.9
20260508173704 56 110 11.0 15.0 0.00 0.00 0.00 45 1020.9
20260508172705 57 108 11.0 16.0 0.00 0.00 0.00 45 1020.9
20260508171205 57 126 12.0 16.0 0.00 0.00 0.00 44 1020.7
20260508170704 57 120 15.0 17.0 0.00 0.00 0.00 44 1020.7
20260508164205 58 102 13.0 18.0 0.00 0.00 0.00 42 1020.7
20260508163704 58 101 13.0 15.0 0.00 0.00 0.00 41 1020.7
20260508161705 58 110 14.0 18.0 0.00 0.00 0.00 39 1020.7
20260508161204 58 100 16.0 21.0 0.00 0.00 0.00 39 1020.7
20260508160206 58 108 11.0 15.0 0.00 0.00 0.00 37 1020.8
20260508155204 58 107 12.0 16.0 0.00 0.00 0.00 35 1020.8
20260508153204 59 114 16.0 20.0 0.00 0.00 0.00 34 1020.7
20260508152706 59 108 12.0 17.0 0.00 0.00 0.00 35 1020.7
20260508152204 59 123 9.0 16.0 0.00 0.00 0.00 37 1020.7
20260508151704 59 117 10.0 16.0 0.00 0.00 0.00 39 1020.7
20260508144204 60 99 11.0 15.0 0.00 0.00 0.00 40 1020.8
20260508143704 60 103 12.0 16.0 0.00 0.00 0.00 40 1020.8
20260508143204 60 101 15.0 21.0 0.00 0.00 0.00 39 1020.8
20260508142704 60 112 7.0 14.0 0.00 0.00 0.00 41 1020.9
20260508141704 60 106 16.0 20.0 0.00 0.00 0.00 40 1020.9
20260508140704 60 112 13.0 18.0 0.00 0.00 0.00 40 1020.9
20260508140204 60 110 12.0 17.0 0.00 0.00 0.00 39 1020.9
20260508135705 60 102 13.0 20.0 0.00 0.00 0.00 40 1020.9
20260508135204 60 132 9.0 15.0 0.00 0.00 0.00 39 1021.0
20260508134704 60 96 17.0 18.0 0.00 0.00 0.00 39 1021.0
20260508131206 60 116 14.0 17.0 0.00 0.00 0.00 39 1021.1
20260508130204 60 90 6.0 13.0 0.00 0.00 0.00 39 1021.1
20260508125704 60 107 9.0 15.0 0.00 0.00 0.00 39 1021.2
20260508125205 60 97 12.0 16.0 0.00 0.00 0.00 41 1021.2
20260508124704 60 129 12.0 17.0 0.00 0.00 0.00 40 1021.2
20260508124203 60 92 9.0 16.0 0.00 0.00 0.00 40 1021.2
20260508122704 60 84 14.0 18.0 0.00 0.00 0.00 40 1021.2
20260508121705 60 105 10.0 17.0 0.00 0.00 0.00 40 1021.2
20260508121204 60 101 13.0 20.0 0.00 0.00 0.00 41 1021.2
20260508120703 60 84 8.0 17.0 0.00 0.00 0.00 40 1021.1
20260508114706 60 112 18.0 24.0 0.00 0.00 0.00 40 1021.2
20260508114206 60 141 12.0 20.0 0.00 0.00 0.00 41 1021.1
20260508112706 59 102 16.0 21.0 0.00 0.00 0.00 40 1021.1
20260508112205 59 102 15.0 18.0 0.00 0.00 0.00 40 1021.2
20260508111206 59 119 18.0 22.0 0.00 0.00 0.00 40 1021.2
20260508105206 59 132 16.0 22.0 0.00 0.00 0.00 40 1021.1
20260508103706 59 109 19.0 22.0 0.00 0.00 0.00 37 1021.0
20260508103206 59 139 14.0 21.0 0.00 0.00 0.00 37 1021.0
20260508102706 60 108 20.0 26.0 0.00 0.00 0.00 35 1021.0
20260508102206 60 107 14.0 23.0 0.00 0.00 0.00 38 1020.9
20260508101706 60 106 19.0 22.0 0.00 0.00 0.00 38 1020.9
20260508100706 60 112 13.0 20.0 0.00 0.00 0.00 38 1020.8
20260508095706 60 114 18.0 23.0 0.00 0.00 0.00 37 1020.8
20260508095205 60 100 17.0 23.0 0.00 0.00 0.00 39 1020.9
20260508094205 59 103 16.0 20.0 0.00 0.00 0.00 49 1020.9
20260508093206 59 108 14.0 20.0 0.00 0.00 0.00 54 1020.9